FENGYUN 1C DEB, 30298

Orbit data source: Space-Track

FENGYUN 1C DEB, 30298 is space debris in SSO originally from a launch on Mon, 10 May 1999 UTC launched from the Taiyaun Space Center, China (TSC). Fengyun 1C debris stems from the Chinese weather satellite Fengyun-1C, which was intentionally destroyed by a Chinese anti-satellite missile in 2007. This event dramatically increased the amount of space debris, with thousands of trackable fragments posing hazards to satellites and human spaceflight. The Fengyun 1C debris cloud has become a focal point in discussions about space sustainability and the need for international regulations to prevent the creation of new debris.

Loading next visibility...
Identifier
30298, 1999-025ZK
Orbit
SSO
Country
Flag of CNCN / PRC
Related business
Manufacturer
Unknown
Mission
Spacecraft
Bus & Motor
Unknown
Mass
Unknown
Launch date (UTC)
1999-05-10 (27 years ago)
Launch vehicle
Unknown
Launch site
Taiyaun Space Center, China (TSC)
Object type
Payload
Rocket body
Debris
Shape & HBR
Unknown shape, 0.1 m
Radar Cross Section
Medium (>0.1 m² and <1 m²)

Expand to show TLE details & history
Last TLE update: 5 hours ago

TLE from 5 hours ago
0 FENGYUN 1C DEB
1 30298U 99025ZK  26151.23523552  .00004538  00000-0  20803-2 0  9994
2 30298  98.9987 250.1816 0044799   3.9450  25.0680 14.21301343992419
Epoch: 2026-05-31T05:38Z
TLE epoch observation values (Epoch: 2026-05-31T05:38:44.348Z)
Latitude
28.88531°
Longitude
-88.22844°
Altitude
795.327 km
Speed
7.474 km/s
True Right ascension
16h 20m 47s
True Declination
28° 44' 27"
Sunlit
Object was in full shadow at epoch
Visualization orbit readout
Latitude
Unknown
Longitude
Unknown
Altitude
Unknown
Speed
Unknown
Apparent Right ascension
Unknown
Apparent Declination
Unknown
Sunlit
N/A
Visualization observer readout
Local Sidereal Time
20:33:04
Azimuth
Unknown
Elevation
Unknown
Doppler factor
Unknown
Orbital elements
Apogee altitude
850.364 km
Perigee altitude
785.887 km
Semi-major axis
7,196.263 km
Eccentricity
0.00448
Inclination
98.9987°
RAAN
250.1816°
Arg. of periapsis
3.945°
True anomaly
25.28661°
Mean anomaly
25.068°
Eccentric anomaly
25.1772°
Mean motion
3.55535 °/min
Orbital period
101.26 mins
BSTAR
0.0020803
Loading maneuver chart data...
Computing Atmospheric mass density...
Loading historical data...
Loading historical data...
Loading historical data...
Loading historical data...
Loading historical data...
Loading historical data...
Loading historical data...

Documentation

Showing up to 5 results
|